Weather observations for the past three days for
Fort Pierce, St. Lucie County International Airport
Imperial (Metric)
Date Time (edt) Wind (mph) Vis. (mi.) Weather Sky Cond. Temperature (ºF) Relative Humidity Wind Chill (°F) Heat Index (°F) Pressure Precipitation (in)
Air Dwpt 6 hour altimeter (in) sea level (mb) 1 hr 3 hr 6 hr
Max. Min.
16 09:53 S 5 10.00 A Few Clouds FEW028 87.1 73.9 65% 95 30.1 1019.1
16 08:53 S 8 10.00 Fair CLR 84.9 75 72% 93 30.09 1018.7
16 07:53 Calm 10.00 Fair CLR 82 77 82 75 85% 90 30.07 1018.1
16 06:53 Calm 9.00 Fair CLR 75 73 94% 73 30.05 1017.5
16 05:53 Calm 10.00 Fair CLR 75.9 73 91% 76 30.04 1017.1
16 04:53 Calm 10.00 Fair CLR 75.9 73.9 94% 75 30.03 1017.0
16 03:53 Calm 10.00 Fair CLR 77 73.9 90% 78 30.02 1016.6
16 02:53 Calm 10.00 Fair CLR 78.1 75 90% 81 30.03 1017.0
16 01:53 Calm 10.00 Fair CLR 82 75 84.9 82 79% 89 30.05 1017.3
16 00:53 S 3 10.00 Fair CLR 82 75.9 82% 89 30.06 1017.7
15 23:53 S 5 10.00 Fair CLR 82.9 77 82% 92 30.06 1017.7
15 22:53 S 3 10.00 Fair CLR 82.9 75.9 79% 91 30.06 1018.0
15 21:53 E 3 10.00 Fair CLR 82.9 75 77% 90 30.06 1017.9
15 20:53 SE 8 10.00 Fair CLR 84.9 75.9 75% 94 30.06 1017.8
15 19:53 SE 7 10.00 Fair CLR 84.9 77 91 84.9 77% 95 30.03 1016.9
15 18:53 E 12 10.00 Fair CLR 88 75.9 68% 99 30.01 1016.1
15 17:53 E 14 10.00 A Few Clouds FEW020 88 75.9 68% 99 30.03 1016.7
15 16:53 E 13 10.00 Fair CLR 89.1 75 63% 99 30.03 1016.8
15 15:53 E 10 G 20 10.00 A Few Clouds FEW023 90 75.9 63% 102 30.05 1017.4
15 14:53 E 12 G 16 10.00 Fair CLR 90 75 62% 100 30.07 1018.2
15 13:53 E 9 10.00 A Few Clouds FEW026 90 75 91 81 62% 100 30.09 1018.8
15 12:53 E 9 10.00 Fair CLR 90 75 62% 100 30.1 1019.3
15 11:53 NE 8 10.00 Fair CLR 89.1 73.9 61% 98 30.12 1019.9
15 10:53 E 6 10.00 Fair CLR 88 75.9 68% 99 30.12 1020.0
15 09:53 Calm 10.00 Partly Cloudy SCT020 87.1 75 67% 97 30.12 1019.9
15 08:53 Calm 10.00 Fair CLR 86 75.9 72% 96 30.11 1019.5
15 07:53 Calm 10.00 Fair CLR 81 78.1 81 73.9 91% 89 30.1 1019.3
15 06:53 Calm 10.00 Fair CLR 75.9 73 91% 76 30.09 1018.8
15 05:53 Calm 1.75 Fog/Mist SCT028 75 73 94% 73 30.08 1018.7
15 04:53 Calm 10.00 A Few Clouds FEW026 75.9 73 91% 76 30.07 1018.2
15 03:53 Calm 8.00 A Few Clouds FEW019 77 73.9 90% 78 30.07 1018.0
15 02:53 Calm 10.00 Fair CLR 77 73.9 90% 78 30.07 1018.3
15 01:53 Calm 10.00 Fair CLR 77 73.9 84.9 75.9 90% 78 30.09 1018.7
15 00:53 Calm 10.00 Fair CLR 77 73.9 90% 78 30.1 1019.4
14 23:53 Calm 10.00 Fair CLR 77 73.9 90% 78 30.12 1019.8
14 22:53 Calm 10.00 Fair CLR 79 75 88% 83 30.12 1019.9
14 21:53 Calm 10.00 Fair CLR 80.1 75.9 87% 85 30.11 1019.7
14 20:53 Calm 10.00 Fair CLR 82.9 75.9 79% 91 30.12 1019.9
14 19:53 SE 8 10.00 Fair CLR 84.9 75.9 91 84.9 75% 94 30.1 1019.3
14 18:53 SE 10 10.00 Fair CLR 86 75.9 72% 96 30.09 1018.9
14 17:53 E 10 10.00 A Few Clouds FEW020 87.1 75.9 70% 98 30.08 1018.6
14 16:53 SE 12 10.00 Fair CLR 87.1 75.9 70% 98 30.09 1018.9
14 15:53 SE 14 10.00 Fair CLR 89.1 75.9 65% 100 30.11 1019.6
14 14:53 E 14 10.00 A Few Clouds FEW023 90 77 66% 103 30.13 1020.1
14 13:53 Calm 10.00 Fair CLR 90 77 91 82 66% 103 30.16 1021.1
14 12:53 SE 10 10.00 Fair CLR 90 78.1 68% 105 30.15 1021.0
14 11:53 E 9 10.00 Fair CLR 90 75 62% 100 30.15 1021.0
14 10:53 E 8 10.00 A Few Clouds FEW024 89.1 77 68% 102 30.15 1021.0
14 09:53 E 9 10.00 Mostly Cloudy SCT018 BKN023 BKN028 89.1 77 68% 102 30.15 1021.0
14 08:53 E 5 10.00 Partly Cloudy SCT015 86 78.1 77% 98 30.15 1021.0
14 07:53 Calm 10.00 Fair CLR 82 78.1 82 73.9 88% 91 30.15 1020.9
14 06:53 Calm 10.00 Fair CLR 75 73 94% 73 30.14 1020.4
14 05:53 Calm 10.00 Fair CLR 75.9 73 91% 76 30.13 1020.1
14 04:53 N 3 10.00 Fair CLR 73.9 72 94% 30.12 1020.0
14 03:53 Calm 10.00 Fair CLR 75 72 90% 74 30.13 1020.1
14 02:53 W 3 10.00 A Few Clouds FEW019 75 73 94% 73 30.15 1020.7
14 01:53 NW 3 10.00 Fair CLR 75 72 78.1 75 90% 74 30.17 1021.4
14 00:53 Calm 10.00 Fair CLR 75 72 90% 74 30.17 1021.7
13 23:53 Calm 10.00 Fair CLR 75 71.1 88% 75 30.18 1022.1
13 22:53 Calm 10.00 Fair CLR 75 72 90% 74 30.18 1021.8
13 21:53 Calm 10.00 Fair CLR 75 71.1 88% 75 30.17 1021.7
13 20:53 Calm 10.00 Fair CLR 78.1 70 76% 80 30.17 1021.7
13 19:53 Calm 10.00 Fair CLR 78.1 71.1 90 78.1 79% 80 30.19 1022.1
13 18:53 NW 6 10.00 Thunderstorm in Vicinity FEW090 78.1 70 76% 80 30.18 1021.8
13 17:53 S 8 10.00 Mostly Cloudy FEW019 BKN080 86 77 75% 97 30.17 1021.5
13 16:53 SE 13 10.00 Fair CLR 90 75.9 63% 102 30.13 1020.2
13 15:53 E 10 G 23 10.00 Fair CLR 89.1 75.9 65% 100 30.15 1020.9
13 14:53 E 12 10.00 Fair CLR 89.1 73.9 61% 98 30.16 1021.3
13 13:53 SE 9 10.00 Fair CLR 89.1 75 91 79 63% 99 30.18 1021.9
13 12:53 SE 10 10.00 Fair CLR 89.1 73 59% 97 30.19 1022.3
13 11:53 E 10 10.00 Fair CLR 88 75.9 68% 99 30.2 1022.6
Date Time (edt) Wind (mph) Vis. (mi.) Weather Sky Cond. Air Dwpt Max. Min. Relative Humidity Wind Chill (°F) Heat Index (°F) altimeter (in) sea level (mb) 1 hr 3 hr 6 hr
6 hour
Temperature (ºF) Pressure Precipitation (in)